Location: Asheville, NC
(35.6000°N, 82.5500°W)
Time: 00:57:40
(UTC-04:00)

KAITUO 1B - Pass Details

Date: 09 January 2018
Orbit: 499 x 520 km, 97.5° (Epoch: 23 June)

Event Time Altitude Azimuth Distance (km) Brightness Sun altitude
Rises 06:36:55 0° 15° (NNE) 2,622 ? -12.7°
Reaches altitude 10° 06:39:02 10° 18° (NNE) 1,728 ? -12.3°
Maximum altitude 06:42:44 65° 101° (E) 557 ? -11.6°
Drops below altitude 10° 06:46:22 10° 183° (S) 1,702 ? -10.9°
Sets 06:48:27 0° 187° (S) 2,578 ? -10.5°
